No: Datum Uhrzeit Land Meereshöhe Ort Wetter Info Temp/°C Luftfeuchte Luftdruck Wind Regen Schnee
9665 >20.04.2018 >07:03:41 310 m Capellen Sonne + 7,3° 94% 1023.5 hPa 0,0 km/h 0,0 mm 0 cm
9664 >19.04.2018 >17:58:00 566 m Brienz Sonne + 24,5° 26% 1024.1 hPa 8,3 km/h 0,0 mm 0 cm
9663 >19.04.2018 >14:10:48 310 m Capellen Sonne + 25,1° 39% 1025.9 hPa 20,9 km/h 0,0 mm 0 cm
9662 >19.04.2018 >09:37:59 327 m Windhof Sonne + 18,9° 54% 1026.7 hPa 7,9 km/h 0,0 mm 0 cm
9661 >19.04.2018 >07:16:52 525 m Ottnang/Hausruck Sonne + 11,1° 75% 1027.5 hPa 3,2 km/h 0,0 mm 0 cm
9660 >18.04.2018 >14:03:43 279 m Lana Sonne + 22,3° 26% 1029.1 hPa 3,0 km/h 0,0 mm 0 cm
9659 >18.04.2018 >12:37:21 2 m Cadzand Sonne + 17,2° 37% 1028.2 hPa 19,3 km/h 0,0 mm 0 cm
9658 >18.04.2018 >11:03:17 318 m Stuttgard Sonne + 18,3° 55% 1031.7 hPa 3,6 km/h 0,0 mm 0 cm
9657 >18.04.2018 >08:09:24 310 m Capellen bedeckt + 6,6° 97% 1030.5 hPa 0,0 km/h 0,0 mm 0 cm
9656 >17.04.2018 >10:34:45 452 m Doennange Sonne + 13,8° 64% 1026.3 hPa 9,7 km/h 0,0 mm 0 cm
9655 >17.04.2018 >09:09:47 228 m Uettingen Sonne + 12,1° 85% 1024.4 hPa 0,0 km/h 0,0 mm 0 cm
9654 >17.04.2018 >07:10:56 310 m Capellen Sonne + 2,6° 95% 1023.2 hPa 0,0 km/h 0,0 mm 0 cm
9653 >17.04.2018 >14:09:12 48 m Berlin bedeckt + 10° 95% 1023.0 hPa 7,0 km/h 0,0 mm 0 cm
9652 >16.04.2018 >21:03:08 566 m Brienz Regen + 13,2° 71% 1017.8 hPa 15,8 km/h 6,2 mm 0 cm
9651 >16.04.2018 >17:16:12 525 m Ottnang/Hausruck Regen + 13,1° 85% 1012.1 hPa 6,4 km/h 0,2 mm 0 cm
9650 >16.04.2018 >14:05:16 312 m Olm bewölkt-Sonne + 17,6° 51% 1015.6 hPa 16,2 km/h 0,0 mm 0 cm
9649 >16.04.2018 >11:09:20 310 m Capellen bewölkt + 14,7° 71% 1015.3 hPa 7,9 km/h 0,0 mm 0 cm
9648 >16.04.2018 >09:08:40 357 m Fichtenberg Regen + 12,2° 94% 1012.5 hPa 0,0 km/h 1,0 mm 0 cm
9647 >15.04.2018 >11:03:35 296 m Mamer Regen + 12,7° 88% 1013.6 hPa 0,0 km/h 4,2 mm 0 cm
9646 >15.04.2018 >07:05:34 312 m Olm Regen + 10,2° 97% 1014.5 hPa 9,7 km/h 4,4 mm 0 cm
9645 >14.04.2018 >14:50:51 265 m Fulda bewölkt + 17,1° 53% 1018.2 hPa 23,0 km/h 0,0 mm 0 cm
9644 >14.04.2018 >14:01:21 566 m Brienz Sonne + 16,5° 40% 1017.8 hPa 12,,2 km/h 0,0 mm 0 cm
9643 >14.04.2018 >11:08:39 2 m Cadzand Sonne-Regen + 8,6° 94% 998.9 hPa 16,5 km/h 3,2 mm 0 cm
9642 >14.04.2018 >08:10:04 310 m Capellen bedeckt + 4,1° 97% 1017.9 hPa 4,7 km/h 0,0 mm 0 cm
9641 >13.04.2018 >09:10:22 310 m Capellen bedeckt + 4,9° 97% 1006.2 hPa 3,2 km/h 0,0 mm 0 cm

Admin